| time (UTC) | temp F | wind direction | speed MPH | gust MPH | rain 1hr in | rain 24hr in | rain mn in | humidity % | barometer mb |
| 20260906064515 | 73 | 0.0 | 1.0 | 0.00 | 0.01 | 0.00 | 1 | 1009.7 | |
| 20260906063517 | 73 | 0.0 | 4.0 | 0.00 | 0.01 | 0.00 | 1 | 1010.0 | |
| 20260906062515 | 73 | 0.0 | 0.0 | 0.00 | 0.01 | 0.00 | 1 | 1010.1 | |
| 20260906061516 | 73 | 0.0 | 0.0 | 0.00 | 0.01 | 0.00 | 1 | 1010.2 | |
| 20260906060535 | 73 | 0.0 | 0.0 | 0.00 | 0.01 | 0.00 | 1 | 1010.2 | |
| 20260906055555 | 73 | 0.0 | 0.0 | 0.00 | 0.01 | 0.00 | 1 | 1010.5 | |
| 20260906054519 | 73 | 0.0 | 0.0 | 0.00 | 0.01 | 0.00 | 1 | 1010.8 | |
| 20260906053515 | 73 | 0.0 | 0.0 | 0.00 | 0.01 | 0.00 | 1 | 1010.9 | |
| 20260906052535 | 73 | 0.0 | 0.0 | 0.00 | 0.01 | 0.00 | 1 | 1010.9 | |
| 20260906051515 | 73 | 0.0 | 0.0 | 0.00 | 0.01 | 0.00 | 1 | 1011.1 | |
| 20260906050515 | 74 | 0.0 | 0.0 | 0.00 | 0.01 | 0.00 | 1 | 1011.2 | |
| 20260906045515 | 74 | 0.0 | 0.0 | 0.00 | 0.01 | 0.00 | 1 | 1011.0 | |
| 20260906044515 | 74 | 0.0 | 0.0 | 0.00 | 0.01 | 0.00 | 1 | 1011.0 | |
| 20260906043515 | 74 | 0.0 | 0.0 | 0.00 | 0.01 | 0.00 | 1 | 1011.0 | |
| 20260906042516 | 74 | 0.0 | 0.0 | 0.00 | 0.01 | 0.00 | 1 | 1011.1 | |
| 20260906041535 | 74 | 0.0 | 0.0 | 0.00 | 0.01 | 0.00 | 1 | 1011.0 | |
| 20260906040515 | 74 | 0.0 | 0.0 | 0.00 | 0.01 | 0.00 | 1 | 1011.1 | |
| 20260906035516 | 75 | 0.0 | 0.0 | 0.00 | 0.01 | 0.01 | 1 | 1011.1 | |
| 20260906034516 | 75 | 0.0 | 0.0 | 0.00 | 0.01 | 0.01 | 1 | 1011.0 | |
| 20260906033516 | 75 | 0.0 | 0.0 | 0.00 | 0.01 | 0.01 | 1 | 1011.0 | |
| 20260906032516 | 75 | 0.0 | 0.0 | 0.00 | 0.01 | 0.01 | 1 | 1010.8 | |
| 20260906031516 | 75 | 0.0 | 0.0 | 0.00 | 0.01 | 0.01 | 1 | 1010.8 | |
| 20260906030516 | 75 | 0.0 | 0.0 | 0.00 | 0.01 | 0.01 | 1 | 1010.8 | |
| 20260906025516 | 75 | 0.0 | 0.0 | 0.00 | 0.01 | 0.01 | 1 | 1010.9 | |
| 20260906024516 | 75 | 0.0 | 0.0 | 0.00 | 0.01 | 0.01 | 1 | 1010.8 | |
| 20260906023516 | 76 | 0.0 | 0.0 | 0.00 | 0.01 | 0.01 | 1 | 1010.8 | |
| 20260906022536 | 76 | 0.0 | 0.0 | 0.00 | 0.01 | 0.01 | 1 | 1010.7 | |
| 20260906021516 | 76 | 0.0 | 0.0 | 0.00 | 0.01 | 0.01 | 1 | 1010.6 | |
| 20260906020517 | 76 | 0.0 | 0.0 | 0.00 | 0.01 | 0.01 | 1 | 1010.5 | |
| 20260906015536 | 76 | 0.0 | 0.0 | 0.00 | 0.01 | 0.01 | 1 | 1010.6 | |
| 20260906014521 | 76 | 0.0 | 0.0 | 0.00 | 0.01 | 0.01 | 1 | 1010.7 | |
| 20260906013516 | 77 | 0.0 | 0.0 | 0.00 | 0.01 | 0.01 | 1 | 1010.7 | |
| 20260906012556 | 77 | 0.0 | 0.0 | 0.00 | 0.01 | 0.01 | 1 | 1010.6 | |
| 20260906011516 | 77 | 0.0 | 0.0 | 0.00 | 0.01 | 0.01 | 1 | 1010.3 | |
| 20260906010516 | 77 | 0.0 | 0.0 | 0.00 | 0.01 | 0.01 | 1 | 1010.1 | |
| 20260906005516 | 78 | 0.0 | 0.0 | 0.00 | 0.01 | 0.01 | 1 | 1010.0 | |
| 20260906004516 | 78 | 0.0 | 0.0 | 0.00 | 0.01 | 0.01 | 1 | 1010.1 | |
| 20260906003535 | 78 | 0.0 | 0.0 | 0.00 | 0.01 | 0.01 | 1 | 1009.6 | |
| 20260906002515 | 78 | 0.0 | 1.0 | 0.00 | 0.01 | 0.01 | 2 | 1009.6 | |
| 20260906001535 | 79 | 0.0 | 0.0 | 0.00 | 0.01 | 0.01 | 5 | 1009.7 | |
| 20260906000515 | 79 | 203 | 1.0 | 2.0 | 0.00 | 0.01 | 0.01 | 9 | 1009.5 |
| 20260905235536 | 79 | 0.0 | 0.0 | 0.00 | 0.01 | 0.01 | 11 | 1009.4 | |
| 20260905234516 | 80 | 0.0 | 0.0 | 0.00 | 0.01 | 0.01 | 12 | 1009.7 | |
| 20260905233516 | 80 | 0.0 | 0.0 | 0.00 | 0.01 | 0.01 | 16 | 1009.7 | |
| 20260905232516 | 80 | 0.0 | 0.0 | 0.00 | 0.01 | 0.01 | 19 | 1009.6 | |
| 20260905231536 | 80 | 0.0 | 0.0 | 0.00 | 0.01 | 0.01 | 22 | 1009.5 | |
| 20260905230515 | 81 | 0.0 | 0.0 | 0.00 | 0.01 | 0.01 | 22 | 1009.5 | |
| 20260905225516 | 81 | 0.0 | 0.0 | 0.00 | 0.01 | 0.01 | 27 | 1009.4 | |
| 20260905224516 | 81 | 0.0 | 0.0 | 0.00 | 0.01 | 0.01 | 26 | 1009.8 | |
| 20260905223515 | 81 | 0.0 | 0.0 | 0.00 | 0.01 | 0.01 | 28 | 1009.5 | |
| 20260905222515 | 81 | 0.0 | 0.0 | 0.00 | 0.01 | 0.01 | 26 | 1009.4 | |
| 20260905221515 | 81 | 0.0 | 0.0 | 0.00 | 0.01 | 0.01 | 21 | 1009.5 | |
| 20260905220515 | 81 | 0.0 | 0.0 | 0.00 | 0.01 | 0.01 | 15 | 1009.8 | |
| 20260905215516 | 80 | 0.0 | 0.0 | 0.01 | 0.01 | 0.01 | 21 | 1009.7 | |
| 20260905214515 | 80 | 0.0 | 0.0 | 0.01 | 0.01 | 0.01 | 24 | 1009.4 | |
| 20260905213516 | 80 | 0.0 | 1.0 | 0.01 | 0.01 | 0.01 | 12 | 1009.4 | |
| 20260905212515 | 79 | 0.0 | 0.0 | 0.01 | 0.01 | 0.01 | 7 | 1009.2 | |
| 20260905211515 | 79 | 0.0 | 2.0 | 0.01 | 0.01 | 0.01 | 11 | 1009.2 | |
| 20260905210515 | 79 | 0.0 | 0.0 | 0.01 | 0.01 | 0.01 | 26 | 1009.0 | |
| 20260905205516 | 79 | 0.0 | 1.0 | 0.00 | 0.00 | 0.00 | 36 | 1009.6 | |
| 20260905204516 | 80 | 0.0 | 2.0 | 0.00 | 0.00 | 0.00 | 48 | 1009.9 | |
| 20260905203516 | 83 | 135 | 1.0 | 4.0 | 0.00 | 0.00 | 0.00 | 60 | 1010.0 |
| 20260905202515 | 89 | 135 | 4.0 | 8.0 | 0.00 | 0.00 | 0.00 | 63 | 1009.8 |
| 20260905201515 | 92 | 0.0 | 0.0 | 0.00 | 0.00 | 0.00 | 60 | 1009.1 | |
| 20260905200515 | 94 | 0.0 | 0.0 | 0.00 | 0.00 | 0.00 | 60 | 1009.4 | |
| 20260905195515 | 95 | 0.0 | 0.0 | 0.00 | 0.00 | 0.00 | 59 | 1009.0 | |
| 20260905194515 | 96 | 0.0 | 0.0 | 0.00 | 0.00 | 0.00 | 56 | 1009.6 | |
| 20260905193515 | 97 | 0.0 | 0.0 | 0.00 | 0.00 | 0.00 | 52 | 1009.3 | |
| 20260905192515 | 98 | 0.0 | 0.0 | 0.00 | 0.00 | 0.00 | 54 | 1009.2 | |
| 20260905191515 | 99 | 0.0 | 0.0 | 0.00 | 0.00 | 0.00 | 48 | 1009.4 | |
| 20260905190515 | 99 | 0.0 | 1.0 | 0.00 | 0.00 | 0.00 | 48 | 1009.3 | |
| 20260905185535 | 98 | 0 | 1.0 | 4.0 | 0.00 | 0.00 | 0.00 | 53 | 1009.3 |
| 20260905184536 | 98 | 0.0 | 0.0 | 0.00 | 0.00 | 0.00 | 50 | 1009.5 | |
| 20260905183515 | 99 | 0.0 | 4.0 | 0.00 | 0.00 | 0.00 | 49 | 1009.7 | |
| 20260905182515 | 99 | 203 | 1.0 | 2.0 | 0.00 | 0.00 | 0.00 | 49 | 1009.7 |
| 20260905181515 | 99 | 0.0 | 2.0 | 0.00 | 0.00 | 0.00 | 49 | 1010.0 | |
| 20260905180515 | 98 | 248 | 1.0 | 5.0 | 0.00 | 0.00 | 0.00 | 48 | 1010.2 |
| 20260905175515 | 97 | 0.0 | 1.0 | 0.00 | 0.00 | 0.00 | 50 | 1010.4 | |
| 20260905174515 | 97 | 0.0 | 6.0 | 0.00 | 0.00 | 0.00 | 49 | 1010.6 | |
| 20260905173517 | 97 | 0.0 | 1.0 | 0.00 | 0.00 | 0.00 | 53 | 1010.8 | |
| 20260905172537 | 96 | 0.0 | 1.0 | 0.00 | 0.00 | 0.00 | 53 | 1010.8 | |
| 20260905171517 | 96 | 203 | 1.0 | 4.0 | 0.00 | 0.00 | 0.00 | 54 | 1010.9 |
| 20260905170517 | 95 | 0.0 | 2.0 | 0.00 | 0.00 | 0.00 | 53 | 1011.1 | |
| 20260905165517 | 96 | 0.0 | 1.0 | 0.00 | 0.00 | 0.00 | 56 | 1011.3 | |
| 20260905164517 | 95 | 0.0 | 2.0 | 0.00 | 0.00 | 0.00 | 56 | 1011.6 | |
| 20260905163517 | 95 | 0.0 | 1.0 | 0.00 | 0.00 | 0.00 | 57 | 1011.8 | |
| 20260905162517 | 95 | 203 | 1.0 | 4.0 | 0.00 | 0.00 | 0.00 | 59 | 1011.8 |
| 20260905161517 | 94 | 293 | 2.0 | 7.0 | 0.00 | 0.00 | 0.00 | 59 | 1011.9 |
| 20260905160517 | 93 | 0.0 | 1.0 | 0.00 | 0.00 | 0.00 | 59 | 1012.0 | |
| 20260905155517 | 93 | 0.0 | 3.0 | 0.00 | 0.00 | 0.00 | 60 | 1011.9 | |
| 20260905154516 | 92 | 203 | 1.0 | 4.0 | 0.00 | 0.00 | 0.00 | 61 | 1012.1 |
| 20260905153537 | 91 | 0.0 | 2.0 | 0.00 | 0.00 | 0.00 | 61 | 1012.1 | |
| 20260905152516 | 90 | 0.0 | 1.0 | 0.00 | 0.00 | 0.00 | 61 | 1012.2 | |
| 20260905151516 | 89 | 0.0 | 1.0 | 0.00 | 0.00 | 0.00 | 61 | 1012.4 | |
| 20260905150537 | 88 | 248 | 1.0 | 4.0 | 0.00 | 0.00 | 0.00 | 60 | 1012.5 |
| 20260905145516 | 87 | 135 | 1.0 | 5.0 | 0.00 | 0.00 | 0.00 | 59 | 1012.5 |
| 20260905144516 | 86 | 203 | 1.0 | 3.0 | 0.00 | 0.00 | 0.00 | 56 | 1012.5 |
| 20260905143516 | 85 | 180 | 1.0 | 5.0 | 0.00 | 0.00 | 0.00 | 48 | 1012.5 |
| 20260905142516 | 84 | 0.0 | 1.0 | 0.00 | 0.00 | 0.00 | 45 | 1012.6 | |
| 20260905141516 | 83 | 0.0 | 2.0 | 0.00 | 0.00 | 0.00 | 38 | 1012.7 | |
| 20260905140516 | 82 | 0.0 | 1.0 | 0.00 | 0.00 | 0.00 | 28 | 1012.7 | |
| 20260905135516 | 82 | 0.0 | 1.0 | 0.00 | 0.00 | 0.00 | 22 | 1012.6 | |
| 20260905134516 | 81 | 270 | 1.0 | 3.0 | 0.00 | 0.00 | 0.00 | 19 | 1012.6 |
| 20260905133516 | 80 | 0.0 | 1.0 | 0.00 | 0.00 | 0.00 | 7 | 1012.5 | |
| 20260905132516 | 79 | 0.0 | 2.0 | 0.00 | 0.00 | 0.00 | 2 | 1012.6 | |
| 20260905131516 | 79 | 0.0 | 2.0 | 0.00 | 0.00 | 0.00 | 1 | 1012.6 | |
| 20260905130516 | 78 | 0.0 | 4.0 | 0.00 | 0.00 | 0.00 | 1 | 1012.8 | |
| 20260905125516 | 77 | 0.0 | 2.0 | 0.00 | 0.00 | 0.00 | 1 | 1012.7 | |
| 20260905124516 | 77 | 0.0 | 1.0 | 0.00 | 0.00 | 0.00 | 1 | 1012.8 | |
| 20260905123516 | 76 | 0.0 | 0.0 | 0.00 | 0.00 | 0.00 | 1 | 1012.6 | |
| 20260905122516 | 76 | 0.0 | 0.0 | 0.00 | 0.00 | 0.00 | 1 | 1012.5 | |
| 20260905121536 | 75 | 0.0 | 2.0 | 0.00 | 0.00 | 0.00 | 1 | 1012.5 | |
| 20260905120516 | 74 | 0.0 | 1.0 | 0.00 | 0.00 | 0.00 | 1 | 1012.5 | |
| 20260905115518 | 74 | 0.0 | 1.0 | 0.00 | 0.00 | 0.00 | 1 | 1012.4 | |
| 20260905114516 | 74 | 0.0 | 0.0 | 0.00 | 0.00 | 0.00 | 1 | 1012.4 | |
| 20260905113516 | 74 | 0.0 | 0.0 | 0.00 | 0.00 | 0.00 | 1 | 1012.3 | |
| 20260905112556 | 73 | 0.0 | 0.0 | 0.00 | 0.00 | 0.00 | 1 | 1012.1 | |
| 20260905111516 | 73 | 0.0 | 0.0 | 0.00 | 0.00 | 0.00 | 1 | 1012.0 | |
| 20260905110516 | 73 | 0.0 | 0.0 | 0.00 | 0.00 | 0.00 | 1 | 1012.0 | |
| 20260905105516 | 73 | 0.0 | 0.0 | 0.00 | 0.00 | 0.00 | 1 | 1012.0 | |
| 20260905104516 | 73 | 0.0 | 0.0 | 0.00 | 0.00 | 0.00 | 1 | 1011.9 | |
| 20260905103516 | 73 | 0.0 | 0.0 | 0.00 | 0.00 | 0.00 | 1 | 1011.9 | |
| 20260905102516 | 73 | 0.0 | 0.0 | 0.00 | 0.00 | 0.00 | 1 | 1011.8 | |
| 20260905101516 | 73 | 0.0 | 0.0 | 0.00 | 0.00 | 0.00 | 1 | 1011.8 | |
| 20260905100516 | 73 | 0.0 | 0.0 | 0.00 | 0.00 | 0.00 | 1 | 1011.8 | |
| 20260905095516 | 73 | 0.0 | 0.0 | 0.00 | 0.00 | 0.00 | 1 | 1011.7 | |
| 20260905094516 | 73 | 0.0 | 0.0 | 0.00 | 0.00 | 0.00 | 1 | 1011.8 | |
| 20260905093516 | 74 | 0.0 | 0.0 | 0.00 | 0.00 | 0.00 | 1 | 1011.8 | |
| 20260905092516 | 73 | 0.0 | 0.0 | 0.00 | 0.00 | 0.00 | 1 | 1011.8 | |
| 20260905091516 | 74 | 0.0 | 0.0 | 0.00 | 0.00 | 0.00 | 1 | 1011.8 | |
| 20260905090516 | 74 | 0.0 | 0.0 | 0.00 | 0.00 | 0.00 | 1 | 1011.9 | |
| 20260905085536 | 74 | 0.0 | 0.0 | 0.00 | 0.00 | 0.00 | 1 | 1011.9 | |
| 20260905084516 | 74 | 0.0 | 0.0 | 0.00 | 0.00 | 0.00 | 1 | 1011.9 | |
| 20260905083536 | 74 | 0.0 | 0.0 | 0.00 | 0.00 | 0.00 | 1 | 1012.0 | |
| 20260905082516 | 74 | 0.0 | 0.0 | 0.00 | 0.00 | 0.00 | 1 | 1011.9 | |
| 20260905081516 | 74 | 0.0 | 0.0 | 0.00 | 0.00 | 0.00 | 1 | 1011.9 | |
| 20260905080536 | 74 | 0.0 | 0.0 | 0.00 | 0.00 | 0.00 | 1 | 1012.0 | |
| 20260905075515 | 74 | 0.0 | 0.0 | 0.00 | 0.00 | 0.00 | 1 | 1012.0 | |
| 20260905074556 | 74 | 0.0 | 0.0 | 0.00 | 0.00 | 0.00 | 1 | 1012.1 | |
| 20260905073516 | 75 | 0.0 | 0.0 | 0.00 | 0.00 | 0.00 | 1 | 1012.0 | |
| 20260905072515 | 75 | 0.0 | 0.0 | 0.00 | 0.00 | 0.00 | 1 | 1012.2 | |
| 20260905071516 | 75 | 0.0 | 0.0 | 0.00 | 0.00 | 0.00 | 1 | 1012.2 | |
| 20260905070516 | 75 | 0.0 | 0.0 | 0.00 | 0.00 | 0.00 | 1 | 1012.2 | |
| 20260905065515 | 75 | 0.0 | 0.0 | 0.00 | 0.00 | 0.00 | 1 | 1012.2 |